Weather History for Frenchville, ME

Change the Weather History Date:

Tuesday, July 23, 2013

  Actual Average Record
Temperature  
Mean Temperature 62 °F 65 °F  
Max Temperature 66 °F 75 °F 84 °F (2001)
Min Temperature 57 °F 56 °F 43 °F (1997)
Degree Days  
Heating Degree Days 3    
Month to date heating degree days 27  
Since 1 July heating degree days 27  
Cooling Degree Days 0    
Month to date cooling degree days 89  
Year to date cooling degree days 114  
Growing Degree Days 12 (Base 50)    
Moisture  
Dew Point 59 °F    
Average Humidity 90    
Maximum Humidity 100    
Minimum Humidity 67    
Precipitation  
Precipitation 0.60 in 0.14 in 0.60 in (2013)
Month to date precipitation 1.09 3.40  
Year to date precipitation 16.74 17.15  
Sea Level Pressure  
Sea Level Pressure 29.69 in    
Wind  
Wind Speed 6 mph (SE)    
Max Wind Speed 14 mph    
Max Gust Speed 20 mph    
Visibility 8 miles    
Events Rain    
T = Trace of Precipitation, MM = Missing Value Source: NWS Daily Summary

Daily Weather History Graph

Daily Weather History Graph

Search for Another Location

Airport:

Trip Planner

Search our weather history database for the weather conditions in past years. The results will help you decide how hot, cold, wet, or windy it might be!

Date:

Astronomy

Jul. 23, 2013 Rise Set
Actual Time 5:01 AM EDT 8:17 PM EDT
Civil Twilight 4:23 AM EDT 8:54 PM EDT
Nautical Twilight 3:35 AM EDT 9:43 PM EDT
Astronomical Twilight 2:33 AM EDT 10:44 PM EDT
Moon 8:32 PM EDT (7/23) 6:14 AM EDT (7/23)
Length of Visible Light 16h 30m
Length of Day
15h 16m
Full, 99% of the Moon is Illuminated
Jul 23
Full
Jul 29
Last Quarter
Aug 6
New
Aug 14
First Quarter
Aug 20
Full

Hourly Weather History & Observations

Time (EDT) Temp. Dew Point Humidity Pressure Visibility Wind Dir Wind Speed Gust Speed Precip Events Conditions
12:53 AM 61.0 °F 57.0 °F 87% 29.87 in 10.0 mi SSE 6.9 mph - N/A   Clear
1:53 AM 61.0 °F 57.9 °F 90% 29.87 in 10.0 mi SSE 5.8 mph - N/A   Clear
2:53 AM 59.0 °F 57.0 °F 93% 29.85 in 10.0 mi SE 4.6 mph - N/A   Partly Cloudy
3:53 AM 57.9 °F 55.9 °F 93% 29.84 in 10.0 mi SE 5.8 mph - N/A   Partly Cloudy
4:53 AM 57.9 °F 55.9 °F 93% 29.83 in 10.0 mi SSE 8.1 mph - N/A   Mostly Cloudy
5:53 AM 57.9 °F 55.0 °F 90% 29.82 in 10.0 mi SSE 8.1 mph - N/A   Partly Cloudy
6:53 AM 57.9 °F 54.0 °F 87% 29.82 in 10.0 mi SE 5.8 mph - N/A   Mostly Cloudy
7:53 AM 59.0 °F 54.0 °F 83% 29.81 in 10.0 mi SE 5.8 mph - N/A   Overcast
8:53 AM 62.1 °F 53.1 °F 72% 29.80 in 10.0 mi SSE 11.5 mph - N/A   Scattered Clouds
9:53 AM 64.0 °F 53.1 °F 67% 29.78 in 10.0 mi South 9.2 mph - N/A   Scattered Clouds
10:53 AM 64.9 °F 55.0 °F 70% 29.76 in 10.0 mi SSE 11.5 mph - N/A   Clear
11:53 AM 64.9 °F 57.9 °F 78% 29.74 in 10.0 mi SSE 8.1 mph - N/A   Overcast
12:15 PM 66.2 °F 59.0 °F 78% 29.75 in 10.0 mi SSE 9.2 mph - N/A   Overcast
12:22 PM 66.2 °F 59.0 °F 78% 29.74 in 10.0 mi SSE 9.2 mph - N/A   Overcast
12:53 PM 66.0 °F 60.1 °F 81% 29.73 in 10.0 mi SSE 10.4 mph - 0.00 in Rain Light Rain
1:51 PM 64.4 °F 62.6 °F 94% 29.71 in 7.0 mi SSE 8.1 mph - 0.01 in Rain Light Rain
1:53 PM 64.0 °F 63.0 °F 96% 29.70 in 6.0 mi SSE 8.1 mph - 0.02 in Rain Light Rain
2:01 PM 64.4 °F 62.6 °F 94% 29.71 in 4.0 mi SSE 5.8 mph - 0.01 in Rain Light Rain
2:53 PM 64.0 °F 63.0 °F 96% 29.67 in 4.0 mi SE 6.9 mph - 0.07 in Rain Light Rain
3:30 PM 64.4 °F 62.6 °F 94% 29.66 in 5.0 mi SE 5.8 mph - 0.06 in Rain Rain
3:53 PM 63.0 °F 61.0 °F 93% 29.64 in 4.0 mi SE 4.6 mph - 0.11 in Rain Rain
4:22 PM 64.4 °F 62.6 °F 94% 29.64 in 4.0 mi Calm Calm - 0.06 in Rain Rain
4:35 PM 64.4 °F 62.6 °F 94% 29.63 in 2.5 mi NE 3.5 mph - 0.10 in Rain Rain
4:41 PM 64.4 °F 62.6 °F 94% 29.63 in 3.0 mi NE 3.5 mph - 0.12 in Rain Rain
4:53 PM 64.0 °F 63.0 °F 96% 29.62 in 4.0 mi East 4.6 mph - 0.15 in Rain Rain
5:53 PM 63.0 °F 62.1 °F 97% 29.60 in 4.0 mi ESE 10.4 mph - 0.18 in Rain Rain
6:53 PM 62.1 °F 61.0 °F 96% 29.59 in 9.0 mi SE 9.2 mph - 0.06 in Rain Light Rain
7:43 PM 60.8 °F 59.0 °F 94% 29.58 in 10.0 mi East 6.9 mph - 0.01 in Rain Light Rain
7:53 PM 61.0 °F 59.0 °F 93% 29.58 in 10.0 mi ESE 4.6 mph - 0.01 in Rain Light Rain
8:53 PM 60.1 °F 59.0 °F 96% 29.58 in 10.0 mi ESE 3.5 mph - 0.00 in   Overcast
9:16 PM 60.8 °F 59.0 °F 94% 29.59 in 10.0 mi Calm Calm - N/A   Overcast
9:33 PM 60.8 °F 59.0 °F 94% 29.58 in 8.0 mi East 4.6 mph - N/A   Overcast
9:53 PM 59.0 °F 59.0 °F 100% 29.57 in 10.0 mi Calm Calm - N/A   Overcast
10:22 PM 59.0 °F 57.2 °F 94% 29.57 in 10.0 mi Calm Calm - N/A   Overcast
10:41 PM 59.0 °F 57.2 °F 94% 29.57 in 10.0 mi Calm Calm - N/A   Overcast
10:53 PM 59.0 °F 57.9 °F 96% 29.55 in 10.0 mi Calm Calm - N/A   Overcast
11:38 PM 60.8 °F 57.2 °F 88% 29.56 in 10.0 mi North 3.5 mph - N/A   Overcast
11:53 PM 59.0 °F 57.9 °F 96% 29.55 in 9.0 mi Calm Calm - N/A   Overcast